User: anonymous   Login
Location: Newark
(5.8900°S, 42.6378°W)
Time: 18:30:46
(UTC+00:00)
Language:

NUDT-PHONESAT - Orbit

View from above orbital plane
View from above orbital plane
View from above satellite
View from above satellite

Ground track
Ground track

The orbit data is extracted from the following two-line orbital elements,

1 40900U 15049B   19294.99949361  .00001850  00000-0  81153-4 0  9993
2 40900  97.4378 303.1313 0014349 103.1664 309.0202 15.23160627226738
Epoch (UTC): 21 October 2019 23:59:16
Eccentricity: 0.0014349
inclination: 97.4378°
perigee height: 486 km
apogee height: 506 km
right ascension of ascending node: 303.1313°
argument of perigee: 103.1664°
revolutions per day: 15.23160627
mean anomaly at epoch: 309.0202°
orbit number at epoch: 22673

The dashed part of the orbit path shows where the satellite is in the earth's shadow,  

DLR